Wind_Speed
5 5 7 6 7 3 5 10 15 12 12 9 14 14 13 11 9 9 10 9 8 10 13 13 15 17 19 17 18 18 18 17 16 16 17 16 15 16 18 18 17 17 16 17 17 17 16 15 12
8 11 8 12 3 5 7 12 16 13 11 7 11 12 14 12 10 8 11 9 8 9 14 15 14 15 16 16 16 16 16 16 16 17 17 17 16 14 15 18 19 18 19 19 18 16 16 15 13
12 15 13 8 4 5 6 10 16 15 11 7 8 12 13 12 11 8 9 10 7 9 12 14 15 14 16 15 14 14 14 15 15 16 17 18 18 14 14 16 17 15 14 16 17 16 13 17 16
6 11 5 4 12 7 8 8 14 15 12 8 7 10 13 12 10 9 9 9 8 10 11 12 12 13 14 14 12 12 12 12 13 14 15 16 16 17 15 13 17 15 15 13 15 16 15 14 17
6 6 6 2 3 10 11 12 14 17 15 10 8 9 11 12 10 9 9 8 6 11 12 11 11 12 12 12 12 14 14 13 12 11 12 14 16 16 16 16 16 14 14 14 14 17 18 19 17
8 6 9 9 4 11 14 11 10 15 16 12 10 11 12 12 10 11 9 8 8 9 12 11 11 11 11 11 12 13 13 12 12 11 10 15 13 12 15 16 15 13 12 14 15 17 19 18 15
7 11 13 7 9 14 12 8 9 9 15 13 8 14 15 12 8 11 9 8 8 9 11 11 11 12 11 11 12 11 9 11 13 13 18 17 15 19 14 12 16 14 15 18 20 19 18 16 13
5 4 12 6 8 18 13 7 7 11 11 14 8 7 18 10 7 9 10 10 10 10 11 11 12 12 11 11 11 10 10 11 14 19 20 17 17 14 13 14 16 19 16 19 19 19 17 13 13
7 7 8 11 5 16 7 11 9 10 7 13 9 8 16 10 7 10 10 11 11 12 12 11 11 11 12 10 11 10 11 11 13 15 14 14 14 13 12 14 15 18 18 19 19 17 14 13 16
11 7 6 7 3 18 10 9 5 12 8 12 11 10 12 11 9 7 9 11 12 12 12 12 11 11 11 10 10 11 12 13 14 12 12 13 12 12 12 13 13 18 20 20 20 17 14 15 17
12 8 5 6 9 12 5 8 10 15 11 9 9 11 11 11 10 9 10 11 12 12 12 11 11 11 10 11 10 11 14 16 14 12 10 11 12 13 13 13 16 19 21 21 18 17 16 18 18
13 8 1 6 2 5 13 7 12 10 11 8 7 8 11 11 10 10 9 12 11 11 13 11 10 10 10 11 11 10 14 15 14 13 12 11 13 13 12 14 17 19 19 19 19 18 19 20 20
15 12 8 5 7 6 15 4 18 12 11 9 7 5 10 10 8 9 7 9 11 11 12 13 10 10 10 12 12 12 16 16 14 13 13 14 12 13 15 15 18 19 19 19 19 20 22 22 23
14 13 10 9 10 5 12 4 6 8 6 7 6 5 9 10 8 9 8 10 11 12 11 14 12 11 10 14 13 16 20 18 14 13 13 14 12 13 15 18 18 16 17 18 19 21 22 23 24
17 17 12 12 9 3 4 13 10 3 7 5 8 7 10 9 5 9 9 11 12 12 12 13 12 12 13 16 14 15 17 15 15 12 13 14 13 12 14 15 15 16 17 17 20 21 22 22 21
20 17 14 14 15 7 7 12 13 14 7 13 8 7 10 6 6 7 8 10 12 12 12 13 13 15 15 15 16 13 16 17 17 15 15 14 12 12 14 15 16 18 16 16 20 20 20 20 18
21 19 14 18 13 9 12 13 21 18 13 13 9 9 9 7 7 7 8 7 11 11 12 13 15 15 15 14 14 14 17 19 16 16 14 14 13 13 13 15 17 16 16 16 19 18 17 16 14
25 23 22 20 16 13 12 13 10 21 16 12 12 11 12 8 8 7 7 7 9 10 13 11 16 16 15 15 17 18 18 19 17 13 14 14 14 14 15 15 18 18 19 18 17 15 13 10 9
27 27 25 25 15 13 14 12 9 16 13 12 13 13 12 11 10 7 8 9 10 9 13 12 16 16 17 18 20 20 18 17 14 13 14 15 15 14 15 13 16 17 17 17 16 15 12 10 7
28 25 25 27 27 17 19 17 12 13 17 15 11 17 14 11 11 8 9 11 12 12 11 11 15 16 18 20 21 19 18 19 14 14 11 13 14 13 13 12 13 16 18 16 17 16 13 10 6
27 25 25 25 24 19 18 20 15 16 23 21 19 19 15 14 12 11 11 13 13 11 12 12 11 16 17 19 20 18 18 17 17 13 14 13 13 11 10 10 12 13 16 16 16 16 14 12 10
26 24 22 24 31 13 12 17 19 26 29 25 22 20 16 16 12 12 11 13 14 13 13 15 13 15 16 18 20 19 18 17 14 14 13 13 12 11 9 9 10 13 15 16 16 15 15 13 12
26 27 24 26 30 18 16 15 23 17 27 28 21 23 22 19 17 16 14 13 15 12 12 14 15 15 17 18 19 18 17 16 14 13 12 11 12 13 12 10 10 11 13 15 13 13 13 13 11
29 29 27 22 30 25 14 18 16 23 18 32 26 23 24 21 21 18 15 14 16 16 13 12 11 15 16 16 18 18 18 17 15 14 14 12 11 10 11 11 9 9 10 11 13 12 11 10 11
27 22 25 27 23 22 16 19 20 15 17 29 31 27 23 24 23 19 15 15 15 16 16 13 14 16 17 17 17 15 15 15 15 13 12 12 12 10 10 11 10 7 8 9 10 10 11 10 8
24 23 23 22 21 23 7 11 14 11 12 28 35 33 27 29 27 22 20 20 18 17 16 16 14 14 17 18 16 17 17 16 15 15 13 11 11 11 12 12 11 10 7 7 7 8 9 9 8
25 22 23 23 30 15 17 8 14 8 4 21 32 33 29 27 28 26 22 22 20 19 19 18 17 16 15 15 16 16 16 16 16 16 14 12 11 10 10 13 15 12 11 9 7 6 7 7 7
28 24 21 17 29 29 19 9 14 17 9 18 27 26 26 25 28 29 27 26 24 23 22 20 20 18 14 14 15 16 15 15 16 15 14 14 12 10 9 10 13 13 13 12 11 10 8 7 6
28 29 30 25 28 21 22 17 18 21 12 4 15 20 19 21 27 31 30 30 28 27 24 21 21 20 20 18 17 16 16 15 16 16 16 15 14 12 12 12 12 12 13 13 13 12 11 11 13
30 29 27 27 26 24 21 19 27 14 7 13 4 18 15 14 19 30 34 36 32 29 27 26 24 21 21 20 19 19 18 17 17 16 15 14 15 16 16 15 15 15 15 14 14 13 13 14 16
Wind_Direction
5 303 349 323 338 108 133 108 101 97 92 90 101 99 88 83 82 79 83 82 95 104 103 95 87 89 87 87 92 93 95 95 93 93 95 99 113 122 128 133 137 142 153 150 149 141 141 137 134
353 339 308 349 321 162 154 125 113 99 93 94 101 96 89 87 81 74 87 88 95 103 104 104 97 95 98 99 99 101 101 98 95 94 92 91 99 114 124 135 138 147 150 149 145 147 145 139 124
350 347 317 334 213 127 162 127 117 109 108 97 99 101 88 83 82 80 80 96 105 109 101 105 109 105 102 99 96 96 100 98 94 88 90 92 96 104 116 127 127 139 140 135 141 134 127 132 130
360 355 105 114 121 147 140 141 119 111 108 98 109 104 94 84 82 82 84 97 116 112 106 107 110 108 105 104 100 100 104 103 97 94 96 94 98 97 102 113 115 120 115 115 130 133 136 133 119
343 16 106 19 97 165 144 147 121 106 103 103 116 112 94 89 81 83 90 95 115 122 118 119 114 109 104 102 95 91 104 107 101 101 107 112 113 114 105 103 113 129 123 131 134 129 136 121 132
329 345 341 21 175 158 160 121 107 111 104 108 121 111 79 72 84 91 88 103 116 118 125 124 116 114 107 104 99 102 105 109 99 91 117 137 134 114 112 110 110 122 131 133 143 129 124 124 120
12 11 16 344 136 176 167 125 111 101 98 91 94 100 88 75 73 103 96 97 102 112 118 120 119 116 109 102 106 108 111 107 97 81 109 113 123 121 125 132 104 116 124 130 127 126 121 118 122
266 332 345 326 234 197 147 136 114 88 84 84 78 97 99 84 68 100 104 109 114 116 118 121 119 114 111 112 111 107 97 127 110 104 107 109 114 120 121 124 139 111 114 122 122 123 124 123 116
274 272 7 67 117 152 198 144 111 105 107 94 94 87 97 112 86 100 116 122 121 120 118 115 115 115 113 116 111 108 103 115 123 122 112 100 106 116 122 133 142 131 130 134 130 126 121 118 113
229 277 339 15 143 176 121 153 150 131 124 101 103 109 94 94 80 96 113 126 122 121 120 117 115 110 112 108 108 109 100 116 121 122 118 112 110 109 116 128 134 138 140 136 130 124 121 120 116
216 258 325 52 125 154 191 138 130 136 104 103 100 115 106 96 77 78 115 127 126 124 124 118 115 115 115 111 111 116 121 119 127 124 110 104 102 108 123 130 143 142 140 135 129 121 125 124 122
207 218 259 338 122 206 195 154 166 139 116 116 101 105 97 85 81 87 129 138 108 119 126 124 121 122 119 115 118 115 141 130 127 122 120 108 106 102 113 128 140 139 140 136 131 131 134 129 125
199 207 232 251 286 278 194 191 151 160 123 137 116 115 113 94 97 95 112 121 120 129 132 124 122 120 130 119 122 119 144 133 129 129 120 114 99 101 101 122 136 143 140 138 137 141 136 130 128
203 214 228 262 258 268 234 183 191 120 154 143 139 140 121 99 110 102 104 117 121 127 127 123 123 124 129 123 126 128 136 131 132 124 117 112 113 105 102 111 116 132 142 138 142 143 136 131 129
205 209 221 250 259 262 150 195 166 241 218 174 161 157 122 119 112 106 106 118 127 121 124 127 128 122 127 128 137 137 143 144 127 130 121 118 111 112 111 109 113 129 136 140 144 140 139 134 136
208 209 225 246 238 222 202 223 237 241 164 157 164 192 154 148 104 112 108 115 126 126 128 125 122 116 119 134 128 134 138 140 134 132 138 125 105 113 110 111 118 122 125 142 140 144 144 142 145
211 205 224 236 223 211 217 217 232 235 204 156 166 190 179 177 133 125 108 112 122 129 126 123 118 118 126 136 137 136 136 136 135 135 137 117 113 114 112 115 113 117 128 142 144 150 150 152 154
214 209 209 210 214 209 216 228 227 209 201 191 182 182 188 169 135 130 127 124 127 135 132 130 122 122 127 128 133 134 133 134 131 142 137 120 119 127 123 118 122 128 134 142 144 144 155 166 158
216 215 218 222 205 211 217 197 202 192 208 159 170 184 197 179 154 147 156 140 131 151 142 136 129 131 128 134 135 135 135 129 135 144 136 126 124 130 118 126 131 135 135 143 145 147 165 176 169
220 219 224 227 232 219 218 219 207 226 191 178 187 186 197 183 165 162 166 155 144 153 161 148 134 137 134 137 143 141 137 142 148 147 142 136 132 134 125 132 142 143 144 151 150 157 168 179 187
225 224 227 232 231 229 210 215 217 227 223 206 177 179 191 198 183 179 179 164 157 149 157 158 150 143 144 140 147 146 143 149 150 151 147 146 132 116 131 136 144 147 146 158 164 169 177 184 190
227 235 237 246 221 200 207 206 205 201 230 215 204 209 210 201 194 192 188 169 164 164 156 161 160 155 152 144 150 158 158 161 152 151 149 153 150 139 138 148 155 152 154 158 166 177 189 205 197
223 226 240 240 244 206 211 222 211 216 223 222 208 218 192 205 199 199 191 182 176 174 164 156 163 162 160 153 155 162 163 162 166 158 155 156 163 167 166 166 165 158 164 164 174 182 200 207 214
223 238 239 256 246 247 224 226 225 220 231 219 195 195 187 199 205 200 199 187 180 174 177 167 176 171 170 165 161 163 166 169 175 174 169 168 165 178 180 169 173 166 164 171 178 191 202 213 222
230 247 247 264 272 236 255 252 246 221 247 221 203 207 202 199 208 199 194 199 190 179 174 172 171 177 177 175 172 173 176 177 179 178 185 176 173 190 189 182 179 187 171 179 184 188 206 218 232
238 242 253 263 274 233 208 239 236 231 257 210 203 195 203 202 205 206 194 200 199 189 183 181 185 185 184 182 184 182 181 185 184 189 196 191 178 190 198 187 183 187 182 174 189 201 199 207 226
236 237 255 269 273 227 305 272 230 188 210 203 201 210 208 209 212 202 205 204 204 199 192 187 190 193 187 187 188 190 194 196 194 194 198 199 198 197 204 195 193 188 183 174 176 201 203 196 212
238 232 240 263 260 258 282 42 189 199 218 159 193 206 205 214 221 213 202 204 204 209 204 194 194 198 192 195 194 193 202 207 211 207 211 211 211 208 207 211 204 199 194 194 195 199 212 220 227
238 242 243 251 259 276 282 278 59 45 36 232 167 182 194 200 207 215 204 205 207 210 211 204 202 201 201 203 212 203 201 205 213 216 211 217 222 224 226 222 216 216 219 218 210 209 215 223 232
237 241 246 251 253 259 264 281 288 315 355 349 319 196 184 209 230 209 212 213 213 207 211 207 207 208 210 210 217 220 210 212 212 217 218 213 215 223 227 228 225 222 224 227 234 235 227 222 232
Height
5879 5876 5875 5875 5880 5879 5881 5882 5878 5880 5880 5880 5877 5878 5878 5878 5878 5880 5878 5879 5879 5879 5879 5880 5880 5880 5880 5881 5882 5883 5885 5885 5885 5886 5886 5886 5886 5888 5889 5890 5891 5892 5895 5897 5898 5900 5900 5901 5901
5878 5876 5874 5875 5878 5879 5882 5881 5879 5880 5881 5882 5880 5880 5879 5880 5879 5879 5879 5880 5881 5882 5881 5881 5882 5882 5883 5884 5885 5885 5886 5887 5887 5888 5888 5888 5888 5890 5890 5892 5892 5894 5896 5896 5898 5899 5899 5899 5901
5877 5874 5875 5876 5878 5879 5882 5882 5880 5880 5881 5883 5882 5882 5882 5881 5881 5881 5881 5881 5883 5884 5882 5882 5884 5885 5886 5887 5887 5887 5888 5889 5889 5889 5890 5889 5889 5892 5893 5893 5894 5896 5896 5897 5898 5899 5901 5902 5903
5879 5878 5877 5877 5878 5881 5883 5884 5882 5882 5882 5884 5884 5884 5883 5882 5883 5883 5882 5883 5885 5885 5885 5885 5886 5887 5887 5888 5889 5890 5890 5891 5892 5892 5892 5892 5893 5893 5896 5895 5898 5897 5898 5899 5900 5902 5903 5905 5907
5880 5880 5879 5879 5879 5881 5882 5884 5883 5882 5884 5885 5885 5885 5883 5883 5884 5884 5884 5885 5886 5886 5886 5887 5888 5889 5889 5889 5889 5890 5891 5893 5894 5894 5895 5896 5896 5898 5898 5899 5901 5901 5902 5904 5904 5904 5906 5908 5911
5879 5878 5879 5877 5879 5878 5881 5880 5882 5883 5885 5886 5887 5884 5884 5884 5885 5885 5886 5886 5887 5887 5887 5889 5889 5891 5891 5892 5892 5893 5894 5895 5895 5896 5896 5897 5898 5899 5901 5902 5903 5904 5906 5907 5908 5909 5911 5912 5914
5876 5876 5878 5878 5878 5877 5879 5881 5882 5884 5884 5885 5887 5884 5885 5886 5887 5886 5888 5888 5889 5889 5889 5890 5891 5892 5892 5894 5894 5895 5895 5896 5898 5897 5897 5899 5900 5902 5904 5906 5907 5908 5910 5910 5912 5913 5915 5916 5916
5878 5879 5877 5876 5875 5876 5879 5882 5882 5883 5884 5885 5887 5888 5884 5888 5889 5889 5889 5890 5890 5891 5891 5892 5893 5894 5894 5895 5896 5896 5897 5899 5900 5900 5901 5903 5904 5905 5907 5908 5910 5911 5913 5914 5916 5917 5918 5919 5920
5879 5880 5879 5877 5875 5879 5880 5882 5882 5883 5886 5887 5889 5889 5886 5889 5891 5891 5891 5891 5892 5892 5892 5893 5894 5895 5896 5896 5896 5898 5898 5900 5901 5903 5905 5906 5907 5908 5908 5910 5911 5913 5915 5916 5918 5920 5921 5923 5922
5880 5880 5880 5881 5880 5879 5880 5884 5883 5885 5887 5888 5889 5890 5888 5890 5892 5893 5892 5892 5892 5893 5893 5895 5896 5897 5897 5898 5899 5900 5900 5900 5903 5905 5907 5908 5908 5909 5909 5912 5914 5915 5917 5918 5921 5923 5925 5925 5925
5879 5880 5880 5881 5881 5882 5882 5883 5884 5886 5887 5889 5891 5891 5889 5891 5892 5893 5893 5893 5893 5894 5896 5897 5898 5898 5898 5900 5901 5902 5902 5904 5906 5908 5909 5910 5910 5910 5910 5912 5914 5916 5919 5922 5924 5926 5927 5928 5928
5878 5880 5882 5881 5882 5882 5880 5882 5884 5887 5887 5890 5891 5892 5891 5892 5894 5895 5895 5895 5895 5896 5897 5899 5899 5899 5900 5901 5902 5903 5903 5905 5908 5910 5911 5911 5913 5913 5913 5914 5917 5921 5923 5925 5927 5928 5929 5930 5931
5877 5880 5881 5882 5882 5880 5877 5883 5884 5887 5888 5891 5893 5894 5892 5893 5897 5897 5897 5897 5897 5898 5899 5900 5900 5901 5901 5903 5903 5904 5905 5908 5909 5911 5912 5913 5915 5916 5916 5918 5921 5924 5926 5928 5929 5930 5931 5932 5933
5876 5878 5881 5881 5882 5881 5879 5883 5885 5888 5890 5892 5894 5895 5896 5897 5899 5899 5898 5898 5899 5900 5900 5900 5901 5903 5903 5904 5905 5905 5907 5910 5911 5913 5915 5916 5917 5918 5919 5921 5924 5927 5928 5930 5932 5934 5935 5935 5935
5874 5876 5880 5881 5881 5881 5880 5879 5887 5888 5890 5892 5894 5895 5896 5898 5900 5899 5900 5901 5901 5901 5903 5903 5904 5904 5905 5906 5907 5908 5910 5911 5914 5915 5917 5918 5919 5921 5922 5924 5926 5927 5930 5932 5934 5937 5938 5939 5940
5872 5875 5878 5880 5880 5881 5884 5885 5884 5888 5890 5892 5894 5895 5897 5898 5900 5901 5901 5902 5903 5903 5904 5905 5905 5905 5907 5909 5909 5910 5912 5913 5916 5918 5918 5920 5922 5924 5925 5926 5927 5929 5933 5936 5938 5939 5941 5943 5944
5869 5872 5875 5878 5878 5879 5881 5884 5881 5886 5889 5891 5894 5895 5899 5899 5900 5902 5902 5903 5903 5905 5906 5907 5907 5907 5908 5910 5911 5913 5914 5916 5917 5919 5921 5923 5924 5926 5928 5928 5931 5933 5936 5938 5941 5942 5945 5947 5949
5865 5867 5871 5875 5876 5877 5879 5879 5879 5883 5888 5891 5894 5896 5898 5899 5900 5901 5903 5904 5905 5906 5908 5908 5909 5909 5910 5912 5913 5915 5917 5919 5919 5922 5924 5926 5927 5928 5928 5931 5932 5934 5937 5940 5943 5945 5948 5951 5953
5861 5864 5866 5869 5872 5876 5875 5878 5879 5883 5886 5890 5894 5895 5897 5899 5900 5901 5903 5905 5907 5907 5909 5910 5911 5912 5912 5914 5915 5917 5919 5921 5924 5926 5928 5929 5929 5930 5931 5932 5934 5935 5938 5942 5944 5947 5950 5953 5956
5859 5863 5864 5866 5868 5872 5872 5876 5878 5881 5884 5888 5891 5894 5897 5900 5900 5902 5904 5906 5908 5909 5910 5910 5912 5914 5914 5915 5917 5918 5921 5923 5927 5929 5930 5932 5931 5934 5934 5935 5937 5938 5940 5944 5945 5948 5951 5954 5957
5858 5859 5860 5863 5867 5868 5868 5873 5875 5877 5880 5885 5892 5893 5896 5897 5899 5903 5905 5906 5908 5910 5912 5912 5912 5915 5916 5917 5919 5921 5923 5925 5929 5931 5933 5933 5934 5937 5937 5939 5941 5942 5943 5946 5947 5948 5951 5954 5956
5855 5857 5859 5860 5862 5866 5868 5870 5871 5874 5877 5882 5888 5893 5894 5895 5898 5902 5904 5907 5908 5910 5912 5913 5913 5915 5916 5919 5921 5923 5924 5926 5930 5932 5934 5935 5937 5939 5941 5942 5944 5945 5946 5947 5949 5950 5951 5954 5956
5853 5854 5857 5858 5857 5862 5863 5865 5867 5870 5872 5876 5885 5888 5892 5893 5896 5899 5903 5906 5908 5909 5911 5914 5915 5916 5917 5919 5922 5925 5928 5930 5932 5934 5935 5936 5938 5939 5941 5943 5945 5947 5947 5948 5951 5952 5954 5955 5957
5849 5852 5855 5855 5854 5860 5860 5862 5864 5866 5867 5873 5880 5884 5889 5891 5894 5897 5901 5905 5907 5909 5910 5913 5916 5917 5918 5919 5922 5925 5928 5930 5932 5934 5935 5937 5938 5940 5942 5944 5945 5947 5949 5950 5951 5953 5955 5956 5957
5848 5850 5853 5855 5852 5856 5857 5859 5860 5862 5863 5865 5875 5881 5885 5887 5891 5895 5899 5903 5906 5908 5910 5913 5915 5917 5919 5921 5923 5924 5927 5930 5932 5934 5936 5937 5938 5940 5942 5943 5945 5947 5949 5951 5952 5953 5954 5955 5955
5844 5847 5849 5851 5852 5853 5854 5855 5856 5856 5857 5859 5866 5874 5878 5882 5888 5894 5897 5900 5903 5906 5910 5913 5915 5918 5920 5921 5923 5924 5926 5929 5932 5934 5935 5937 5938 5939 5941 5942 5943 5947 5949 5951 5951 5953 5954 5955 5955
5842 5845 5846 5846 5846 5849 5852 5853 5853 5855 5857 5856 5863 5871 5877 5881 5886 5891 5895 5898 5901 5904 5907 5910 5914 5916 5919 5921 5924 5925 5926 5928 5930 5933 5935 5937 5937 5938 5939 5940 5942 5945 5947 5949 5951 5952 5953 5954 5955
5838 5841 5843 5844 5844 5847 5852 5851 5851 5854 5855 5855 5861 5868 5875 5878 5881 5887 5890 5895 5899 5902 5905 5909 5913 5916 5918 5920 5923 5925 5927 5928 5929 5931 5933 5935 5937 5937 5938 5940 5942 5944 5946 5949 5950 5951 5952 5952 5953
5835 5837 5840 5843 5845 5849 5853 5853 5850 5852 5854 5855 5858 5864 5870 5874 5877 5881 5886 5890 5895 5898 5904 5907 5911 5915 5917 5919 5922 5923 5924 5926 5929 5931 5932 5934 5935 5937 5938 5940 5941 5943 5945 5947 5948 5949 5950 5951 5952
5830 5834 5837 5840 5845 5847 5849 5854 5850 5855 5857 5856 5857 5859 5866 5871 5872 5874 5881 5885 5890 5895 5899 5903 5906 5910 5914 5917 5920 5921 5923 5925 5927 5929 5930 5932 5933 5935 5937 5939 5940 5940 5942 5943 5945 5946 5947 5949 5949